Location: Buckeye Ditch
(40.9104°N, 122.9517°W)
Time: 03:34:12
(UTC+00:00)

Cosmos 1470 Rocket - Visible Passes

Search period start: 25 July 2024 00:00
Search period end: 04 August 2024 00:00
Orbit: 599 x 630 km, 82.5° (Epoch: 24 July)

Date Brightness Start Highest point End Pass type
(mag) Time Alt. Az. Time Alt. Az. Time Alt. Az.
25 Jul 4.1 11:52:46 10° S 11:56:58 57° E 12:01:11 10° NNE visible
26 Jul 3.5 12:08:41 10° SSW 12:12:58 76° W 12:17:17 10° N visible
27 Jul 6.2 10:49:03 10° ESE 10:51:38 16° E 10:54:14 10° NE visible
27 Jul 4.1 12:25:01 10° SSW 12:29:03 40° WNW 12:33:07 10° N visible
28 Jul 5.3 11:03:48 10° SSE 11:07:28 28° E 11:11:08 10° NNE visible
29 Jul 4.2 11:19:55 15° SSE 11:23:22 52° E 11:27:33 10° NNE visible
30 Jul 3.4 11:36:19 19° S 11:39:20 82° W 11:43:40 10° N visible
31 Jul 6.1 10:15:41 10° ESE 10:18:03 15° E 10:20:26 10° NE visible
31 Jul 4.0 11:52:40 19° SW 11:55:24 43° WNW 11:59:32 10° N visible
01 Aug 5.3 10:31:56 19° SE 10:33:51 26° E 10:37:26 10° NNE visible
01 Aug 4.8 12:09:01 15° WSW 12:11:33 24° WNW 12:15:05 10° NNW visible
02 Aug 4.2 10:48:13 33° SE 10:49:44 48° E 10:53:53 10° NNE visible
02 Aug 5.5 12:25:33 10° WSW 12:27:48 14° WNW 12:30:04 10° NW visible
03 Aug 3.4 11:04:30 48° S 11:05:41 89° W 11:10:01 10° N visible
